Temperature
19 19 19 19 19 19 19 19 19 19 19 19 18 18 18 18 18 18 18 18 18 18 18 18 18 18 18 18 18 18 18 18 18 18 17 17 17 17 17 17 17 17 17
19 19 19 19 19 19 19 19 19 19 19 18 18 18 18 18 18 18 18 18 18 18 18 18 18 18 18 18 18 18 18 18 18 18 17 17 17 17 17 17 17 17 17
19 19 19 19 19 19 19 19 19 19 18 18 18 18 18 18 18 18 18 18 18 18 18 18 18 18 18 18 18 18 18 18 18 17 17 17 17 17 17 17 17 17 17
19 19 19 19 19 19 19 19 19 19 19 18 18 18 18 18 18 18 18 18 18 18 18 18 18 18 18 18 18 18 18 18 17 17 17 17 17 17 17 17 17 17 17
19 19 19 19 19 19 19 19 19 19 19 18 18 18 18 18 18 18 18 18 18 18 18 18 18 18 18 18 18 18 18 17 17 17 17 17 17 17 17 17 17 17 17
19 19 19 19 19 18 18 18 18 18 18 18 18 18 18 18 18 18 18 18 18 18 18 18 18 18 18 18 18 18 17 17 17 17 17 17 17 17 17 17 17 17 16
19 19 19 19 18 18 18 18 18 18 18 18 18 18 18 18 18 18 18 18 18 18 18 18 18 18 18 18 18 17 17 17 17 17 17 17 17 17 17 17 16 16 16
19 19 19 19 18 18 18 18 18 18 18 18 18 18 18 18 18 18 18 18 18 18 18 18 18 18 18 17 17 17 17 17 17 17 17 17 17 17 17 16 16 16 16
19 19 19 18 18 18 18 18 18 18 18 18 18 18 18 18 18 18 18 18 18 18 18 18 18 17 17 17 17 17 17 17 17 17 17 17 17 17 17 16 16 16 16
18 18 18 18 18 18 18 18 18 18 18 18 18 18 17 17 17 17 17 17 17 18 17 17 17 17 17 17 17 17 17 17 17 17 17 17 17 16 16 16 16 16 16
18 18 18 18 18 18 18 18 18 18 17 17 17 17 17 17 17 17 17 17 17 17 17 17 17 17 17 17 17 17 17 17 17 17 17 16 16 16 16 16 16 16 16
18 18 18 18 18 18 18 18 17 17 17 17 17 17 17 17 17 17 17 17 17 17 17 17 17 17 17 17 17 17 17 17 17 17 16 16 16 16 16 16 16 16 16
18 18 18 18 18 18 17 17 17 17 17 17 17 17 17 16 16 16 16 16 16 16 17 17 17 17 17 17 17 17 17 17 16 16 16 16 16 16 16 16 16 16 16
18 18 18 18 18 17 17 17 17 17 17 17 16 16 16 16 16 16 16 16 16 16 16 16 16 16 16 16 16 16 16 16 16 16 16 16 16 16 15 15 15 15 15
18 18 18 18 17 17 17 17 17 17 17 16 16 16 16 16 16 16 16 16 15 15 15 16 16 16 16 16 16 16 16 16 16 16 16 15 15 15 15 15 15 15 15
18 18 17 17 17 17 17 17 17 16 16 16 16 16 16 16 15 15 15 15 15 15 15 15 15 15 16 16 16 15 16 16 15 15 15 15 15 15 15 15 15 15 15
18 17 17 17 17 16 16 16 16 16 16 16 16 15 15 15 15 15 15 15 15 15 15 15 15 15 15 15 15 15 15 15 15 15 15 15 15 15 15 15 15 15 14
17 17 17 17 16 16 16 16 16 16 16 15 15 15 15 15 15 15 15 15 15 15 15 14 15 15 15 15 15 15 15 15 15 15 15 15 15 15 15 14 14 14 14
17 17 17 16 16 16 16 16 16 15 15 15 15 15 15 15 15 15 14 14 14 14 14 14 14 14 14 14 14 14 14 14 14 14 14 14 14 14 14 14 14 14 14
17 17 16 16 16 16 15 15 15 15 15 15 15 15 14 14 14 14 14 14 14 14 14 14 14 14 14 14 14 14 14 14 14 14 14 14 14 14 14 14 14 14 14
17 16 16 16 16 15 15 15 15 15 14 14 14 14 14 14 14 14 14 14 14 14 14 13 13 13 13 13 13 13 13 13 14 14 14 14 14 14 13 13 13 13 13
16 16 16 16 16 15 15 15 15 15 14 14 14 14 14 14 14 14 14 13 13 13 13 13 13 13 13 13 13 13 13 13 13 13 13 13 13 13 13 13 13 13 13
16 16 16 16 15 15 15 15 15 14 14 14 14 14 14 13 13 13 13 13 13 13 13 13 13 13 13 13 13 13 13 13 13 13 13 13 13 13 13 13 13 13 13
16 15 15 15 15 15 15 14 14 14 14 14 13 13 13 13 13 13 13 13 13 13 12 12 12 12 12 12 12 12 12 12 12 12 12 12 13 13 13 13 13 13 12
15 15 15 15 15 15 14 14 14 14 13 13 13 13 13 13 13 13 12 12 12 12 12 12 12 12 12 12 12 12 12 12 12 12 12 12 12 12 12 12 12 12 12
15 15 14 14 14 14 14 14 13 13 13 13 13 13 12 12 12 12 12 12 12 12 12 12 12 12 12 12 12 12 12 11 11 12 12 12 12 11 11 12 12 12 12
Wind_Speed
2 1 1 1 1 2 2 2 2 2 2 3 3 4 4 5 6 6 6 9 11 12 12 13 13 13 14 13 13 13 14 14 14 13 13 13 12 12 11 11 11 10 10
2 2 1 1 1 1 2 2 2 2 2 2 2 3 4 5 6 7 6 7 9 11 11 12 12 13 14 14 14 14 14 14 13 12 12 13 12 12 12 12 11 11 11
3 2 1 1 0 1 1 2 2 1 1 1 1 2 3 4 5 6 6 7 7 8 10 10 11 12 13 13 14 14 14 14 13 13 13 12 12 12 12 12 12 12 12
4 3 1 1 1 1 2 2 2 2 1 1 0 1 1 3 4 5 5 6 6 6 8 9 10 11 12 12 13 13 14 15 14 13 13 13 13 13 12 12 12 12 12
4 3 1 1 2 2 2 1 2 2 1 1 0 1 1 2 3 4 4 5 6 7 7 8 9 9 11 12 13 14 14 14 14 13 13 13 14 14 14 13 12 12 12
4 3 2 2 2 3 2 2 2 2 1 0 1 1 0 1 2 3 4 4 4 6 7 7 7 8 9 10 11 12 13 13 13 13 12 13 13 13 13 13 13 12 12
4 3 2 2 2 3 2 2 2 2 1 1 2 2 2 1 1 2 2 2 3 5 5 6 7 7 7 8 9 9 10 10 11 11 11 11 11 10 11 11 11 12 13
3 4 3 2 2 2 2 2 2 2 1 2 2 2 2 3 2 1 1 2 3 2 3 5 6 7 7 6 8 10 11 10 10 11 11 10 10 10 11 11 11 12 13
3 3 3 3 2 2 1 1 1 2 1 1 1 2 2 2 2 2 1 1 1 1 2 3 4 6 8 7 8 10 12 12 12 11 11 11 11 11 11 11 11 12 12
3 3 3 3 2 2 1 1 1 1 2 1 1 1 1 2 1 1 3 2 1 1 1 2 2 4 6 7 7 9 10 11 11 12 11 11 12 12 12 12 11 11 12
2 3 3 3 2 2 1 1 2 2 2 1 1 1 1 1 1 1 1 3 2 1 2 2 2 2 4 6 6 8 9 10 11 11 11 11 11 11 11 11 11 11 12
1 1 2 2 2 2 1 1 1 2 2 2 1 1 1 1 1 1 2 2 2 3 2 1 1 3 5 6 7 8 9 9 10 10 11 11 11 11 11 11 11 11 12
1 1 2 2 2 2 2 1 2 1 1 1 1 0 0 1 1 1 1 1 2 3 2 1 2 2 3 4 5 6 7 9 9 10 10 10 10 9 9 9 9 10 10
3 2 2 2 2 2 2 1 1 1 1 1 1 1 0 1 1 2 2 2 1 2 2 3 2 1 2 3 4 4 4 6 8 9 10 10 10 9 9 9 9 9 9
3 3 2 2 1 2 1 2 1 0 0 0 0 0 0 1 1 1 1 2 3 2 3 3 2 2 1 1 2 2 3 2 4 6 8 9 10 9 9 9 9 9 8
3 3 3 2 2 1 1 1 1 0 0 1 1 0 1 1 1 1 1 1 2 3 3 3 2 2 2 2 2 3 3 4 5 6 6 7 8 8 7 7 7 8 8
4 4 4 3 2 2 1 1 1 1 0 1 1 1 2 1 1 1 1 0 1 2 3 4 2 2 1 2 2 2 3 3 5 6 7 7 7 7 7 7 7 7 7
4 4 4 4 3 2 2 2 2 1 1 1 2 1 2 1 1 1 1 1 1 2 3 3 3 2 2 2 2 2 2 2 4 5 6 7 7 8 8 9 8 8 7
3 3 3 3 3 3 3 2 2 2 2 2 2 2 2 1 2 2 2 2 2 2 2 2 2 2 2 2 2 2 2 2 3 4 5 6 8 8 9 10 10 9 9
3 3 3 3 3 3 3 2 2 2 1 1 1 1 2 2 2 2 2 2 2 1 1 1 2 2 2 2 1 2 3 2 3 3 4 4 6 7 9 9 10 10 10
4 3 3 2 2 3 3 3 3 3 2 1 1 1 2 2 2 2 1 2 2 2 2 1 2 1 2 1 2 2 2 3 3 2 2 3 3 3 5 7 8 10 10
3 3 3 3 3 3 3 4 4 3 3 2 2 2 3 2 3 3 3 3 3 3 3 3 2 3 4 3 2 2 2 2 3 2 1 3 1 2 3 4 7 8 9
4 4 4 3 3 4 4 4 4 4 3 3 3 2 2 2 2 2 3 3 3 3 4 4 4 5 5 5 3 3 3 3 4 4 1 3 2 3 4 6 7 8 9
4 4 4 4 3 3 3 3 3 2 2 3 3 3 3 3 2 1 2 2 3 3 4 3 4 6 5 5 5 4 4 3 3 3 2 2 3 3 4 4 7 7 8
3 3 3 3 3 3 3 3 2 2 2 2 3 3 3 3 3 1 1 2 3 4 4 4 4 4 5 5 3 1 1 1 3 3 2 2 2 2 3 3 5 6 7
3 2 2 2 3 3 2 3 3 2 2 2 2 3 3 3 3 2 2 2 3 5 4 4 4 4 3 4 4 3 4 3 3 3 3 2 2 1 2 3 2 3 4
Wind_Direction
155 152 160 154 198 194 175 174 177 189 193 202 193 180 175 173 170 173 190 195 197 196 195 197 199 202 202 199 200 202 201 201 201 200 199 201 202 201 202 204 205 205 206
143 127 126 120 161 205 185 166 164 172 187 185 196 189 183 170 173 178 187 193 197 196 195 196 200 204 207 207 207 206 204 201 201 199 200 203 206 207 205 206 208 209 211
142 124 101 80 113 182 149 131 121 117 151 150 160 182 181 172 178 185 187 189 194 197 199 202 202 205 208 209 209 207 206 206 205 204 204 207 209 209 208 208 209 211 214
133 116 89 47 39 77 78 103 106 114 116 118 120 171 174 177 188 185 185 187 193 197 201 207 208 209 210 210 211 210 209 209 208 207 210 213 214 214 213 214 215 217 219
128 118 91 47 66 68 49 81 87 102 97 82 124 137 172 182 185 185 189 196 198 197 198 206 210 210 210 212 212 212 211 210 210 212 216 219 219 219 217 220 222 222 222
125 116 96 65 83 76 50 49 70 58 88 107 55 53 94 199 191 192 200 203 206 203 201 205 207 210 209 209 211 213 212 212 212 214 218 224 225 223 221 220 221 224 224
129 111 93 68 78 91 87 71 75 57 30 59 67 29 4 334 203 218 208 204 209 207 195 199 203 203 208 210 209 206 208 210 210 211 214 218 220 220 221 221 222 225 224
132 123 114 107 97 88 66 56 68 68 16 50 103 88 12 350 336 276 209 204 210 205 206 210 205 201 201 203 206 206 209 212 215 216 216 217 220 222 223 227 230 230 226
128 114 117 112 113 107 97 56 71 101 82 6 73 127 135 233 309 335 319 256 209 202 221 209 208 210 207 206 210 213 216 217 218 217 218 221 222 224 224 228 233 232 230
141 132 122 118 119 113 106 65 87 99 102 34 346 35 155 164 158 323 334 324 292 239 245 227 223 217 209 207 211 212 215 218 220 221 221 225 227 228 228 231 235 234 232
143 141 127 115 115 117 107 74 64 75 95 105 60 12 32 39 95 153 287 316 333 303 262 241 210 213 207 203 211 215 215 219 223 225 228 231 233 233 232 234 236 237 237
138 143 125 123 124 127 130 121 93 83 79 77 70 74 112 128 188 165 218 271 294 295 285 253 214 216 215 213 218 215 216 221 225 228 232 236 237 239 238 239 240 240 242
165 182 153 144 149 147 139 121 92 80 78 73 75 82 113 206 180 164 175 251 279 292 314 297 247 228 231 213 221 222 224 225 228 229 232 234 237 239 241 243 244 243 243
180 174 154 153 161 154 147 130 112 122 90 79 51 63 6 303 176 174 182 183 280 308 313 289 292 256 261 217 220 219 234 240 239 236 236 236 237 238 240 242 244 244 241
173 165 155 140 132 144 149 139 137 223 84 109 273 359 312 315 327 264 189 179 183 243 273 283 297 297 287 223 219 213 217 242 247 241 241 241 240 239 239 239 242 244 241
175 168 164 157 149 137 147 151 151 193 132 286 261 29 317 306 330 327 264 219 182 194 243 268 262 280 279 276 248 233 232 244 250 253 252 246 239 232 232 233 236 239 239
175 174 175 171 169 181 181 165 179 152 145 304 302 278 279 284 319 311 299 240 196 178 221 270 277 284 290 296 306 293 277 269 267 257 252 246 239 234 233 235 238 241 240
181 179 176 176 185 191 199 196 209 196 191 245 272 274 277 294 320 309 292 261 242 210 200 245 272 286 284 279 287 279 284 292 278 272 265 250 246 243 239 238 240 241 242
178 179 175 184 195 196 196 197 189 194 206 226 246 258 278 263 279 270 247 245 248 252 216 213 253 269 277 290 310 305 309 300 299 290 278 257 254 251 245 240 241 241 242
174 181 185 186 192 189 181 185 182 184 191 225 239 236 247 236 250 258 243 223 221 234 231 218 252 275 275 281 304 288 307 308 295 292 293 284 274 266 256 248 246 244 243
177 176 176 178 183 189 194 187 189 182 175 216 274 267 258 268 288 269 251 222 206 212 212 210 237 262 279 293 283 267 273 290 291 274 295 297 287 278 274 261 251 244 240
186 181 189 195 200 212 201 194 182 185 190 202 238 272 278 292 312 313 280 233 207 207 209 209 220 228 243 242 249 258 257 285 291 283 277 290 286 279 269 260 260 248 237
196 201 206 198 212 226 202 187 186 183 197 215 232 251 273 298 314 307 300 289 273 244 208 197 210 229 230 229 223 245 245 241 254 253 227 271 272 272 272 275 264 250 238
201 207 208 207 208 224 208 192 184 193 212 229 234 229 234 260 281 314 322 324 304 281 247 220 218 235 236 229 214 218 233 253 274 263 193 241 264 264 272 270 264 244 236
204 210 206 198 192 220 206 186 165 185 220 252 249 240 236 243 273 318 353 307 309 301 292 286 269 268 267 257 242 219 276 260 287 279 227 204 253 277 275 267 262 248 245
199 193 206 202 191 211 204 183 176 184 217 257 271 262 259 252 259 258 224 237 263 272 289 304 307 310 296 291 273 218 212 220 242 272 252 205 240 264 293 278 260 253 255
Height
1528 1528 1527 1528 1527 1527 1528 1528 1528 1528 1529 1529 1530 1531 1532 1533 1533 1534 1535 1536 1537 1538 1539 1539 1540 1540 1541 1543 1543 1544 1545 1546 1547 1548 1549 1550 1552 1553 1554 1555 1556 1556 1558
1528 1528 1527 1528 1528 1528 1528 1528 1528 1528 1528 1529 1529 1530 1530 1531 1532 1533 1534 1535 1536 1536 1537 1538 1538 1539 1540 1540 1541 1542 1543 1544 1545 1547 1548 1549 1550 1551 1552 1553 1554 1555 1556
1529 1529 1528 1528 1528 1528 1528 1528 1528 1528 1528 1528 1528 1529 1529 1530 1531 1532 1533 1534 1534 1535 1535 1536 1537 1537 1538 1538 1539 1540 1541 1542 1543 1545 1546 1547 1548 1549 1550 1551 1552 1553 1554
1530 1529 1529 1529 1529 1528 1528 1528 1527 1527 1527 1527 1527 1528 1528 1529 1530 1531 1531 1532 1533 1533 1534 1534 1535 1536 1536 1536 1537 1537 1538 1539 1541 1542 1543 1545 1546 1547 1548 1549 1549 1550 1551
1530 1530 1529 1529 1529 1528 1528 1527 1527 1527 1527 1527 1527 1528 1528 1528 1529 1529 1530 1531 1531 1532 1532 1533 1533 1534 1534 1534 1535 1536 1536 1537 1538 1540 1541 1542 1543 1544 1545 1546 1547 1548 1549
1530 1530 1530 1529 1529 1528 1528 1527 1527 1526 1527 1527 1527 1527 1528 1528 1528 1529 1529 1529 1530 1530 1531 1531 1532 1532 1532 1533 1533 1534 1535 1535 1536 1537 1538 1539 1540 1541 1542 1543 1544 1545 1545
1530 1530 1530 1529 1529 1529 1528 1527 1527 1526 1526 1527 1527 1527 1527 1527 1528 1528 1528 1528 1528 1529 1529 1530 1530 1530 1530 1531 1532 1532 1533 1533 1534 1535 1536 1537 1538 1539 1539 1540 1541 1542 1542
1530 1530 1529 1529 1529 1529 1528 1527 1527 1526 1526 1526 1527 1526 1527 1528 1527 1527 1527 1527 1527 1528 1528 1528 1528 1529 1529 1529 1529 1530 1531 1531 1532 1533 1533 1534 1535 1536 1537 1538 1538 1539 1539
1529 1529 1529 1529 1528 1528 1528 1527 1527 1526 1526 1526 1526 1526 1526 1526 1526 1526 1526 1526 1526 1526 1526 1527 1527 1527 1527 1527 1528 1528 1529 1530 1530 1531 1531 1532 1533 1533 1534 1535 1535 1535 1536
1529 1529 1529 1528 1528 1528 1527 1527 1527 1526 1526 1526 1526 1526 1526 1526 1525 1525 1525 1525 1525 1525 1525 1525 1525 1525 1526 1526 1526 1527 1527 1527 1528 1528 1529 1530 1530 1531 1531 1532 1532 1532 1532
1528 1528 1528 1528 1528 1527 1527 1527 1526 1526 1525 1525 1525 1525 1525 1525 1524 1524 1523 1524 1524 1524 1524 1524 1524 1524 1524 1525 1525 1525 1525 1525 1526 1526 1527 1527 1528 1528 1528 1529 1529 1529 1529
1527 1527 1527 1527 1527 1527 1527 1526 1526 1525 1525 1525 1524 1524 1524 1524 1523 1523 1522 1522 1522 1522 1523 1523 1523 1523 1523 1523 1523 1523 1523 1523 1523 1524 1524 1524 1525 1525 1525 1525 1526 1526 1526
1525 1526 1526 1526 1526 1526 1526 1526 1525 1525 1524 1524 1523 1523 1523 1522 1522 1521 1521 1520 1520 1520 1520 1520 1521 1521 1521 1521 1521 1521 1521 1521 1521 1521 1521 1522 1522 1522 1522 1522 1522 1523 1523
1524 1524 1524 1525 1525 1525 1525 1525 1524 1524 1523 1523 1522 1522 1521 1521 1520 1520 1520 1519 1518 1518 1518 1518 1518 1518 1518 1518 1518 1518 1518 1518 1518 1518 1518 1518 1519 1519 1519 1519 1519 1519 1520
1522 1523 1523 1523 1523 1523 1523 1523 1523 1523 1522 1522 1521 1520 1520 1519 1518 1518 1518 1518 1518 1516 1516 1515 1515 1515 1516 1516 1515 1516 1515 1515 1515 1515 1515 1515 1515 1515 1515 1516 1515 1516 1516
1520 1520 1521 1521 1521 1521 1521 1521 1521 1521 1521 1520 1520 1519 1518 1517 1516 1516 1516 1515 1515 1515 1514 1513 1513 1513 1513 1513 1513 1513 1512 1512 1512 1512 1512 1512 1512 1512 1512 1512 1512 1512 1512
1518 1518 1518 1519 1519 1519 1520 1519 1519 1518 1518 1518 1517 1517 1516 1515 1514 1514 1513 1513 1513 1512 1511 1511 1511 1510 1510 1510 1510 1510 1509 1509 1509 1509 1508 1508 1508 1508 1508 1508 1508 1508 1509
1516 1516 1516 1516 1517 1517 1517 1517 1517 1516 1516 1515 1515 1514 1513 1513 1512 1511 1511 1510 1510 1509 1509 1508 1507 1507 1507 1507 1506 1506 1506 1506 1505 1505 1505 1505 1505 1504 1504 1505 1505 1505 1505
1514 1514 1514 1514 1514 1515 1515 1515 1514 1514 1513 1513 1513 1512 1511 1510 1509 1508 1508 1507 1507 1506 1506 1505 1504 1504 1504 1504 1503 1503 1503 1502 1502 1502 1502 1501 1501 1501 1500 1500 1500 1501 1501
1511 1512 1512 1512 1512 1512 1512 1512 1512 1511 1510 1510 1510 1509 1508 1507 1506 1505 1504 1504 1503 1503 1502 1502 1501 1501 1501 1501 1501 1500 1499 1499 1499 1499 1498 1498 1497 1497 1496 1496 1496 1496 1496
1509 1509 1510 1510 1510 1509 1509 1509 1509 1508 1508 1507 1507 1506 1505 1504 1503 1502 1501 1500 1500 1499 1499 1499 1498 1498 1498 1498 1497 1497 1496 1496 1495 1495 1494 1494 1494 1493 1492 1492 1492 1492 1492
1506 1507 1507 1507 1507 1507 1507 1507 1506 1506 1505 1505 1504 1503 1502 1501 1500 1498 1498 1497 1497 1496 1496 1496 1495 1495 1495 1495 1495 1494 1494 1493 1492 1492 1491 1490 1490 1489 1489 1488 1488 1488 1488
1504 1504 1504 1505 1505 1505 1504 1504 1503 1503 1502 1502 1501 1500 1499 1498 1497 1495 1494 1494 1493 1493 1493 1493 1492 1492 1492 1492 1492 1491 1491 1490 1489 1488 1488 1487 1487 1486 1486 1485 1484 1484 1484
1501 1501 1501 1501 1502 1502 1501 1501 1500 1500 1499 1498 1498 1497 1496 1495 1494 1493 1491 1490 1490 1489 1489 1489 1490 1489 1489 1489 1489 1488 1487 1487 1486 1486 1485 1483 1482 1482 1482 1481 1481 1480 1480
1498 1498 1498 1498 1498 1498 1498 1498 1497 1497 1496 1495 1495 1494 1493 1492 1491 1490 1489 1487 1487 1487 1487 1487 1487 1486 1486 1486 1486 1485 1484 1483 1482 1481 1481 1480 1479 1478 1478 1477 1477 1477 1477
1494 1495 1495 1495 1495 1495 1494 1494 1494 1493 1492 1491 1491 1490 1490 1489 1488 1487 1486 1484 1484 1484 1484 1484 1484 1483 1483 1483 1482 1482 1481 1480 1479 1478 1477 1477 1476 1475 1474 1473 1473 1473 1473